Time,TemperatureF,DewpointF,PressureIn,WindDirection,WindDirectionDegrees,WindSpeedMPH,WindSpeedGustMPH,Humidity,HourlyPrecipIn,Conditions,Clouds,dailyrainin,SolarRadiationWatts/m^2,SoftwareType,DateUTC
2013-06-27 00:02:00,62.0,60.0,30.01,SE,128,0.0,4.0,92,0.00,,,0.14,0.000000,,2013-06-27 07:02:00,
2013-06-27 00:12:00,62.0,60.0,30.02,North,2,0.0,8.0,92,0.00,,,0.14,0.000000,,2013-06-27 07:12:00,
2013-06-27 00:22:00,62.0,60.0,30.01,NNW,335,1.0,7.0,92,0.00,,,0.13,0.000000,,2013-06-27 07:22:00,
2013-06-27 00:33:00,62.0,60.0,30.01,NNW,335,1.0,7.0,92,0.00,,,0.13,0.000000,,2013-06-27 07:33:00,
2013-06-27 00:42:00,61.0,59.0,30.01,NW,325,2.0,6.0,92,0.00,,,0.13,0.000000,,2013-06-27 07:42:00,
2013-06-27 00:52:00,61.0,59.0,30.01,NW,310,3.0,9.0,92,0.00,,,0.13,0.000000,,2013-06-27 07:52:00,
2013-06-27 01:01:00,61.0,59.0,30.01,NW,310,3.0,9.0,92,0.00,,,0.13,0.000000,,2013-06-27 08:01:00,
2013-06-27 01:11:00,61.0,59.0,30.01,West,270,4.0,7.0,92,0.00,,,0.13,0.000000,,2013-06-27 08:11:00,
2013-06-27 01:22:00,60.0,58.0,30.01,West,265,0.0,3.0,92,0.00,,,0.09,0.000000,,2013-06-27 08:22:00,
2013-06-27 01:34:00,60.0,58.0,30.01,West,265,0.0,3.0,92,0.00,,,0.09,0.000000,,2013-06-27 08:34:00,
2013-06-27 01:43:00,60.0,58.0,30.01,West,265,0.0,1.0,92,0.00,,,0.09,0.000000,,2013-06-27 08:43:00,
2013-06-27 01:52:00,60.0,58.0,30.02,SSW,208,6.0,8.0,93,0.00,,,0.09,0.000000,,2013-06-27 08:52:00,
2013-06-27 02:02:00,60.0,58.0,30.02,SSW,208,6.0,8.0,93,0.00,,,0.09,0.000000,,2013-06-27 09:02:00,
2013-06-27 02:11:00,60.0,58.0,30.02,SSW,196,7.0,9.0,93,0.00,,,0.09,0.000000,,2013-06-27 09:11:00,
2013-06-27 02:21:00,60.0,58.0,30.03,SSW,198,6.0,10.0,93,0.00,,,0.05,0.000000,,2013-06-27 09:21:00,
2013-06-27 02:33:00,60.0,58.0,30.03,SSW,198,6.0,10.0,93,0.00,,,0.05,0.000000,,2013-06-27 09:33:00,
2013-06-27 02:43:00,60.0,58.0,30.03,SSW,204,7.0,10.0,93,0.00,,,0.05,0.000000,,2013-06-27 09:43:00,
2013-06-27 02:53:00,60.0,58.0,30.03,SSW,202,12.0,16.0,93,0.00,,,0.05,0.000000,,2013-06-27 09:53:00,
2013-06-27 03:01:00,60.0,58.0,30.03,SSW,202,12.0,16.0,93,0.00,,,0.05,0.000000,,2013-06-27 10:01:00,
2013-06-27 03:11:00,60.0,58.0,30.03,SSW,198,11.0,15.0,94,0.00,,,0.05,0.000000,,2013-06-27 10:11:00,
2013-06-27 03:32:00,60.0,58.0,30.02,South,182,9.0,17.0,93,0.00,,,0.03,0.000000,,2013-06-27 10:32:00,
2013-06-27 03:43:00,60.0,58.0,30.02,SSW,202,10.0,16.0,93,0.00,,,0.03,0.000000,,2013-06-27 10:43:00,
2013-06-27 04:01:00,60.0,58.0,30.02,SSW,203,8.0,10.0,93,0.00,,,0.03,0.000000,,2013-06-27 11:01:00,
2013-06-27 04:11:00,60.0,58.0,30.02,SSW,206,9.0,12.0,93,0.00,,,0.03,0.000000,,2013-06-27 11:11:00,
2013-06-27 04:33:00,60.0,58.0,30.02,SSW,194,7.0,10.0,93,0.00,,,0.01,0.000000,,2013-06-27 11:33:00,
2013-06-27 04:43:00,60.0,58.0,30.02,South,175,6.0,12.0,93,0.00,,,0.01,0.000000,,2013-06-27 11:43:00,
2013-06-27 05:01:00,60.0,58.0,30.02,South,169,0.0,6.0,93,0.00,,,0.01,0.000000,,2013-06-27 12:01:00,
2013-06-27 05:11:00,60.0,58.0,30.02,SW,215,3.0,6.0,94,0.00,,,0.01,0.000000,,2013-06-27 12:11:00,
2013-06-27 05:34:00,60.0,58.0,30.02,SSW,199,0.0,4.0,94,0.00,,,0.01,0.000000,,2013-06-27 12:34:00,
2013-06-27 05:42:00,60.0,58.0,30.02,SSW,205,0.0,2.0,94,0.00,,,0.01,0.000000,,2013-06-27 12:42:00,
2013-06-27 06:01:00,60.0,58.0,30.03,SSW,205,0.0,0.0,94,0.00,,,0.01,5.000000,,2013-06-27 13:01:00,
2013-06-27 06:11:00,60.0,58.0,30.03,SSW,208,2.0,4.0,94,0.00,,,0.01,12.000000,,2013-06-27 13:11:00,
2013-06-27 06:33:00,60.0,58.0,30.04,SW,223,7.0,8.0,94,0.00,,,0.00,18.000000,,2013-06-27 13:33:00,
2013-06-27 06:43:00,59.0,57.0,30.05,SSW,203,6.0,9.0,94,0.00,,,0.00,21.000000,,2013-06-27 13:43:00,
2013-06-27 06:52:00,59.0,57.0,30.05,SSW,203,6.0,9.0,94,0.00,,,0.00,21.000000,,2013-06-27 13:52:00,
2013-06-27 07:01:00,59.0,57.0,30.05,SSW,199,2.0,6.0,94,0.00,,,0.00,37.000000,,2013-06-27 14:01:00,
2013-06-27 07:22:00,60.0,58.0,30.05,SW,220,3.0,6.0,94,0.00,,,0.00,62.000000,,2013-06-27 14:22:00,
2013-06-27 07:33:00,60.0,58.0,30.06,SSW,198,2.0,7.0,94,0.00,,,0.00,58.000000,,2013-06-27 14:33:00,
2013-06-27 07:43:00,60.0,58.0,30.06,South,185,4.0,7.0,94,0.00,,,0.00,123.000000,,2013-06-27 14:43:00,
2013-06-27 07:52:00,60.0,58.0,30.06,South,185,4.0,7.0,94,0.00,,,0.00,123.000000,,2013-06-27 14:52:00,
2013-06-27 08:11:00,60.0,58.0,30.07,SSW,198,10.0,16.0,94,0.00,,,0.00,69.000000,,2013-06-27 15:11:00,
2013-06-27 08:22:00,61.0,59.0,30.07,SSW,204,14.0,18.0,94,0.00,,,0.00,141.000000,,2013-06-27 15:22:00,
2013-06-27 08:33:00,62.0,60.0,30.08,South,178,14.0,19.0,93,0.00,,,0.00,195.000000,,2013-06-27 15:33:00,
2013-06-27 08:42:00,63.0,61.0,30.08,South,176,11.0,18.0,92,0.00,,,0.00,216.000000,,2013-06-27 15:42:00,
2013-06-27 08:52:00,63.0,61.0,30.08,South,176,11.0,18.0,92,0.00,,,0.00,216.000000,,2013-06-27 15:52:00,
2013-06-27 09:02:00,63.0,60.0,30.08,South,189,17.0,26.0,91,0.00,,,0.00,156.000000,,2013-06-27 16:02:00,
2013-06-27 09:11:00,63.0,60.0,30.09,SSW,197,18.0,25.0,90,0.00,,,0.00,148.000000,,2013-06-27 16:11:00,
2013-06-27 09:33:00,62.0,59.0,30.10,SSW,196,16.0,26.0,91,0.00,,,0.00,120.000000,,2013-06-27 16:33:00,
2013-06-27 09:43:00,62.0,60.0,30.11,South,191,13.0,20.0,92,0.00,,,0.00,178.000000,,2013-06-27 16:43:00,
2013-06-27 09:53:00,62.0,60.0,30.11,South,191,13.0,20.0,92,0.00,,,0.00,178.000000,,2013-06-27 16:53:00,
2013-06-27 10:01:00,62.0,60.0,30.11,South,191,13.0,20.0,92,0.00,,,0.00,178.000000,,2013-06-27 17:01:00,
2013-06-27 10:11:00,62.0,60.0,30.11,South,191,13.0,20.0,92,0.00,,,0.00,178.000000,,2013-06-27 17:11:00,
2013-06-27 10:22:00,62.0,60.0,30.11,SSW,194,14.0,22.0,92,0.00,,,0.00,246.000000,,2013-06-27 17:22:00,
2013-06-27 10:33:00,62.0,60.0,30.11,South,184,14.0,25.0,93,0.00,,,0.00,234.000000,,2013-06-27 17:33:00,
2013-06-27 10:43:00,62.0,60.0,30.12,SSW,200,13.0,21.0,93,0.00,,,0.00,283.000000,,2013-06-27 17:43:00,
2013-06-27 10:53:00,62.0,60.0,30.12,SSW,200,13.0,21.0,93,0.00,,,0.00,283.000000,,2013-06-27 17:53:00,
2013-06-27 11:01:00,62.0,60.0,30.13,South,188,15.0,22.0,93,0.00,,,0.00,271.000000,,2013-06-27 18:01:00,
2013-06-27 12:33:00,64.0,62.0,30.15,SSW,199,16.0,22.0,94,0.00,,,0.00,,,2013-06-27 19:33:00,
2013-06-27 12:42:00,64.0,62.0,30.15,SSW,203,13.0,19.0,93,0.00,,,0.00,983.000000,,2013-06-27 19:42:00,
2013-06-27 12:53:00,64.0,62.0,30.15,SSW,203,13.0,19.0,93,0.00,,,0.00,983.000000,,2013-06-27 19:53:00,
2013-06-27 13:01:00,64.0,62.0,30.15,SSW,198,17.0,20.0,93,0.00,,,0.00,791.000000,,2013-06-27 20:01:00,
2013-06-27 13:11:00,64.0,62.0,30.16,SSW,210,16.0,19.0,92,0.00,,,0.00,805.000000,,2013-06-27 20:11:00,
2013-06-27 13:22:00,64.0,62.0,30.16,SSW,210,16.0,19.0,92,0.00,,,0.00,805.000000,,2013-06-27 20:22:00,
2013-06-27 13:53:00,65.0,62.0,30.16,SSW,203,14.0,18.0,90,0.00,,,0.00,962.000000,,2013-06-27 20:53:00,
2013-06-27 14:01:00,65.0,62.0,30.16,South,191,16.0,18.0,89,0.00,,,0.00,619.000000,,2013-06-27 21:01:00,
2013-06-27 14:34:00,64.0,61.0,30.17,SSW,210,15.0,18.0,90,0.00,,,0.00,991.000000,,2013-06-27 21:34:00,
2013-06-27 14:44:00,65.0,62.0,30.17,SSW,202,14.0,17.0,89,0.00,,,0.00,664.000000,,2013-06-27 21:44:00,
2013-06-27 14:52:00,65.0,62.0,30.17,SSW,202,14.0,17.0,89,0.00,,,0.00,664.000000,,2013-06-27 21:52:00,
2013-06-27 15:03:00,65.0,62.0,30.17,SSW,205,11.0,15.0,89,0.00,,,0.00,,,2013-06-27 22:03:00,
2013-06-27 15:12:00,65.0,62.0,30.17,SSW,205,11.0,15.0,89,0.00,,,0.00,,,2013-06-27 22:12:00,
2013-06-27 15:22:00,66.0,63.0,30.17,SW,217,12.0,15.0,89,0.00,,,0.00,737.000000,,2013-06-27 22:22:00,
2013-06-27 15:33:00,66.0,62.0,30.18,SW,216,9.0,12.0,88,0.00,,,0.00,677.000000,,2013-06-27 22:33:00,
2013-06-27 16:02:00,66.0,62.0,30.19,SW,216,9.0,11.0,88,0.00,,,0.00,740.000000,,2013-06-27 23:02:00,
2013-06-27 16:33:00,66.0,62.0,30.18,SW,225,5.0,8.0,88,0.00,,,0.00,722.000000,,2013-06-27 23:33:00,
2013-06-27 16:43:00,66.0,62.0,30.19,SW,225,4.0,7.0,87,0.00,,,0.00,585.000000,,2013-06-27 23:43:00,
2013-06-27 17:02:00,66.0,62.0,30.19,WSW,239,5.0,7.0,87,0.00,,,0.00,628.000000,,2013-06-28 00:02:00,
2013-06-27 17:25:00,65.0,61.0,30.19,SW,226,3.0,5.0,87,0.00,,,0.00,329.000000,,2013-06-28 00:25:00,
2013-06-27 17:34:00,64.0,60.0,30.19,SW,225,0.0,4.0,87,0.00,,,0.00,283.000000,,2013-06-28 00:34:00,
2013-06-27 17:44:00,65.0,62.0,30.19,SW,225,0.0,2.0,89,0.00,,,0.00,564.000000,,2013-06-28 00:44:00,
2013-06-27 17:53:00,65.0,62.0,30.19,SW,225,0.0,2.0,89,0.00,,,0.00,564.000000,,2013-06-28 00:53:00,
2013-06-27 18:02:00,65.0,61.0,30.18,SW,228,1.0,3.0,88,0.00,,,0.00,462.000000,,2013-06-28 01:02:00,
2013-06-27 18:22:00,65.0,61.0,30.18,WSW,237,0.0,3.0,88,0.00,,,0.00,462.000000,,2013-06-28 01:22:00,
2013-06-27 18:43:00,64.0,60.0,30.18,NNW,331,1.0,3.0,87,0.00,,,0.00,352.000000,,2013-06-28 01:43:00,
2013-06-27 18:52:00,64.0,60.0,30.18,NNW,331,1.0,3.0,87,0.00,,,0.00,352.000000,,2013-06-28 01:52:00,
2013-06-27 19:03:00,63.0,59.0,30.18,NNW,346,3.0,4.0,88,0.00,,,0.00,360.000000,,2013-06-28 02:03:00,
2013-06-27 19:12:00,62.0,59.0,30.17,North,351,2.0,4.0,89,0.00,,,0.00,288.000000,,2013-06-28 02:12:00,
2013-06-27 19:22:00,62.0,59.0,30.17,North,351,2.0,4.0,89,0.00,,,0.00,288.000000,,2013-06-28 02:22:00,
2013-06-27 19:44:00,62.0,59.0,30.17,NW,305,2.0,4.0,90,0.00,,,0.00,227.000000,,2013-06-28 02:44:00,
2013-06-27 19:52:00,62.0,59.0,30.17,NW,305,2.0,4.0,90,0.00,,,0.00,227.000000,,2013-06-28 02:52:00,
2013-06-27 20:02:00,62.0,59.0,30.17,WNW,289,0.0,4.0,90,0.00,,,0.00,186.000000,,2013-06-28 03:02:00,
2013-06-27 20:34:00,61.0,58.0,30.17,WNW,284,0.0,4.0,90,0.00,,,0.00,33.000000,,2013-06-28 03:34:00,
2013-06-27 20:53:00,60.0,57.0,30.17,WNW,284,0.0,0.0,90,0.00,,,0.00,9.000000,,2013-06-28 03:53:00,
2013-06-27 21:02:00,60.0,57.0,30.17,WNW,284,0.0,3.0,91,0.00,,,0.00,5.000000,,2013-06-28 04:02:00,
2013-06-27 21:11:00,60.0,57.0,30.17,WNW,284,0.0,1.0,91,0.00,,,0.00,0.000000,,2013-06-28 04:11:00,
2013-06-27 21:22:00,60.0,57.0,30.17,WNW,284,0.0,1.0,91,0.00,,,0.00,0.000000,,2013-06-28 04:22:00,
2013-06-27 21:33:00,59.0,57.0,30.17,WNW,284,0.0,3.0,92,0.00,,,0.00,0.000000,,2013-06-28 04:33:00,
2013-06-27 21:43:00,59.0,57.0,30.17,WNW,284,0.0,0.0,92,0.00,,,0.00,0.000000,,2013-06-28 04:43:00,
2013-06-27 21:53:00,59.0,57.0,30.17,WNW,284,0.0,0.0,92,0.00,,,0.00,0.000000,,2013-06-28 04:53:00,
2013-06-27 22:01:00,59.0,57.0,30.17,WNW,285,0.0,2.0,92,0.00,,,0.00,0.000000,,2013-06-28 05:01:00,
2013-06-27 22:11:00,59.0,57.0,30.18,ENE,60,2.0,5.0,93,0.00,,,0.00,0.000000,,2013-06-28 05:11:00,
2013-06-27 22:22:00,59.0,57.0,30.18,ENE,60,2.0,5.0,93,0.00,,,0.00,0.000000,,2013-06-28 05:22:00,
2013-06-27 22:33:00,59.0,57.0,30.17,ENE,60,0.0,2.0,93,0.00,,,0.00,0.000000,,2013-06-28 05:33:00,
2013-06-27 22:43:00,59.0,57.0,30.17,West,265,0.0,4.0,93,0.00,,,0.00,0.000000,,2013-06-28 05:43:00,
2013-06-27 22:52:00,59.0,57.0,30.17,West,265,0.0,4.0,93,0.00,,,0.00,0.000000,,2013-06-28 05:52:00,
2013-06-27 23:02:00,59.0,57.0,30.17,West,265,0.0,1.0,93,0.00,,,0.00,0.000000,,2013-06-28 06:02:00,
2013-06-27 23:11:00,59.0,57.0,30.17,West,265,0.0,1.0,93,0.00,,,0.00,0.000000,,2013-06-28 06:11:00,
2013-06-27 23:22:00,59.0,57.0,30.17,West,265,0.0,2.0,93,0.00,,,0.00,0.000000,,2013-06-28 06:22:00,
2013-06-27 23:33:00,59.0,57.0,30.17,West,265,0.0,0.0,94,0.00,,,0.00,0.000000,,2013-06-28 06:33:00,
2013-06-27 23:42:00,59.0,57.0,30.16,West,265,0.0,1.0,94,0.00,,,0.00,0.000000,,2013-06-28 06:42:00,
2013-06-27 23:52:00,59.0,57.0,30.16,West,265,0.0,1.0,94,0.00,,,0.00,0.000000,,2013-06-28 06:52:00,